| time (UTC) | temp F | wind direction | speed MPH | gust MPH | rain 1hr in | rain 24hr in | rain mn in | humidity % | barometer mb |
| 20260508175600 | 66 | 31 | 2.0 | 6.0 | 0.00 | 0.00 | 0.00 | 76 | 1017.2 |
| 20260508175014 | 66 | 34 | 0.0 | 3.0 | 0.00 | 0.00 | 0.00 | 79 | 1017.3 |
| 20260508174555 | 65 | 34 | 1.0 | 6.0 | 0.00 | 0.00 | 0.00 | 82 | 1017.4 |
| 20260508174108 | 64 | 36 | 3.0 | 6.0 | 0.00 | 0.00 | 0.00 | 83 | 1017.5 |
| 20260508174026 | 64 | 36 | 3.0 | 6.0 | 0.00 | 0.00 | 0.00 | 83 | 1017.5 |
| 20260508173601 | 63 | 34 | 3.0 | 5.0 | 0.00 | 0.00 | 0.00 | 81 | 1017.4 |
| 20260508173519 | 63 | 34 | 3.0 | 5.0 | 0.00 | 0.00 | 0.00 | 81 | 1017.4 |
| 20260508173021 | 64 | 34 | 3.0 | 6.0 | 0.00 | 0.00 | 0.00 | 81 | 1017.4 |
| 20260508172539 | 63 | 36 | 2.0 | 5.0 | 0.00 | 0.00 | 0.00 | 84 | 1017.5 |
| 20260508172055 | 62 | 34 | 2.0 | 3.0 | 0.00 | 0.00 | 0.00 | 84 | 1017.5 |
| 20260508171518 | 62 | 35 | 1.0 | 3.0 | 0.00 | 0.00 | 0.00 | 85 | 1017.4 |
| 20260508171035 | 62 | 35 | 1.0 | 4.0 | 0.00 | 0.00 | 0.00 | 85 | 1017.6 |
| 20260508170609 | 62 | 36 | 2.0 | 4.0 | 0.00 | 0.00 | 0.00 | 85 | 1017.6 |
| 20260508170048 | 61 | 35 | 3.0 | 4.0 | 0.00 | 0.00 | 0.00 | 86 | 1017.5 |
| 20260508165523 | 62 | 34 | 2.0 | 3.0 | 0.00 | 0.00 | 0.00 | 86 | 1017.5 |
| 20260508165017 | 62 | 36 | 0.0 | 3.0 | 0.00 | 0.00 | 0.00 | 86 | 1017.6 |
| 20260508164601 | 61 | 35 | 1.0 | 4.0 | 0.00 | 0.00 | 0.00 | 87 | 1017.6 |
| 20260508164034 | 61 | 38 | 1.0 | 3.0 | 0.00 | 0.00 | 0.00 | 87 | 1017.6 |
| 20260508163528 | 61 | 34 | 1.0 | 4.0 | 0.00 | 0.00 | 0.00 | 87 | 1017.5 |
| 20260508163054 | 61 | 37 | 2.0 | 4.0 | 0.00 | 0.00 | 0.00 | 87 | 1017.7 |
| 20260508163011 | 61 | 37 | 2.0 | 4.0 | 0.00 | 0.00 | 0.00 | 87 | 1017.7 |
| 20260508162547 | 61 | 36 | 2.0 | 4.0 | 0.00 | 0.00 | 0.00 | 87 | 1017.6 |
| 20260508162101 | 61 | 34 | 1.0 | 3.0 | 0.00 | 0.00 | 0.00 | 88 | 1017.7 |
| 20260508161543 | 61 | 36 | 1.0 | 3.0 | 0.00 | 0.00 | 0.00 | 88 | 1017.8 |
| 20260508161038 | 60 | 38 | 1.0 | 3.0 | 0.00 | 0.00 | 0.00 | 88 | 1017.7 |
| 20260508160613 | 60 | 36 | 1.0 | 3.0 | 0.00 | 0.00 | 0.00 | 88 | 1017.7 |
| 20260508160530 | 60 | 36 | 1.0 | 3.0 | 0.00 | 0.00 | 0.00 | 88 | 1017.7 |
| 20260508160031 | 60 | 36 | 1.0 | 3.0 | 0.00 | 0.00 | 0.00 | 89 | 1017.7 |
| 20260508155606 | 60 | 35 | 0.0 | 3.0 | 0.00 | 0.00 | 0.00 | 88 | 1017.7 |
| 20260508155524 | 60 | 35 | 0.0 | 3.0 | 0.00 | 0.00 | 0.00 | 88 | 1017.7 |
| 20260508155059 | 60 | 36 | 0.0 | 2.0 | 0.00 | 0.00 | 0.00 | 88 | 1017.7 |
| 20260508154520 | 60 | 36 | 0.0 | 2.0 | 0.00 | 0.00 | 0.00 | 88 | 1017.7 |
| 20260508154037 | 60 | 32 | 0.0 | 2.0 | 0.00 | 0.00 | 0.00 | 89 | 1017.7 |
| 20260508153532 | 60 | 34 | 1.0 | 2.0 | 0.00 | 0.00 | 0.00 | 89 | 1017.7 |
| 20260508153037 | 60 | 38 | 1.0 | 2.0 | 0.00 | 0.00 | 0.00 | 89 | 1017.7 |
| 20260508152551 | 60 | 37 | 0.0 | 2.0 | 0.00 | 0.00 | 0.00 | 89 | 1017.9 |
| 20260508152047 | 60 | 38 | 0.0 | 2.0 | 0.00 | 0.00 | 0.00 | 89 | 1017.9 |
| 20260508151527 | 60 | 36 | 0.0 | 2.0 | 0.00 | 0.00 | 0.00 | 89 | 1017.8 |
| 20260508151022 | 60 | 35 | 0.0 | 2.0 | 0.00 | 0.00 | 0.00 | 89 | 1017.7 |
| 20260508150539 | 60 | 35 | 0.0 | 2.0 | 0.00 | 0.00 | 0.00 | 89 | 1017.7 |
| 20260508150022 | 60 | 35 | 1.0 | 2.0 | 0.00 | 0.00 | 0.00 | 89 | 1017.7 |
| 20260508145538 | 60 | 34 | 0.0 | 2.0 | 0.00 | 0.00 | 0.00 | 89 | 1017.7 |
| 20260508145016 | 60 | 37 | 0.0 | 2.0 | 0.00 | 0.00 | 0.00 | 90 | 1017.7 |
| 20260508144542 | 59 | 32 | 0.0 | 2.0 | 0.00 | 0.00 | 0.00 | 90 | 1017.6 |
| 20260508144017 | 59 | 34 | 1.0 | 3.0 | 0.00 | 0.00 | 0.00 | 89 | 1017.6 |
| 20260508143532 | 59 | 34 | 2.0 | 3.0 | 0.00 | 0.00 | 0.00 | 90 | 1017.5 |
| 20260508143033 | 60 | 37 | 1.0 | 3.0 | 0.00 | 0.00 | 0.00 | 90 | 1017.6 |
| 20260508142609 | 60 | 32 | 0.0 | 2.0 | 0.00 | 0.00 | 0.00 | 90 | 1017.6 |
| 20260508142526 | 60 | 32 | 0.0 | 2.0 | 0.00 | 0.00 | 0.00 | 90 | 1017.6 |
| 20260508142041 | 60 | 34 | 0.0 | 2.0 | 0.00 | 0.00 | 0.00 | 90 | 1017.6 |
| 20260508141604 | 59 | 38 | 1.0 | 3.0 | 0.00 | 0.00 | 0.00 | 90 | 1017.5 |
| 20260508141018 | 60 | 35 | 1.0 | 3.0 | 0.00 | 0.00 | 0.00 | 90 | 1017.5 |
| 20260508140555 | 60 | 35 | 1.0 | 2.0 | 0.00 | 0.00 | 0.00 | 90 | 1017.4 |
| 20260508140015 | 59 | 32 | 1.0 | 2.0 | 0.00 | 0.00 | 0.00 | 90 | 1017.4 |
| 20260508135529 | 59 | 38 | 1.0 | 3.0 | 0.00 | 0.00 | 0.00 | 90 | 1017.4 |
| 20260508135046 | 59 | 38 | 1.0 | 3.0 | 0.00 | 0.00 | 0.00 | 90 | 1017.3 |
| 20260508134547 | 59 | 35 | 0.0 | 3.0 | 0.00 | 0.00 | 0.00 | 90 | 1017.3 |
| 20260508134023 | 60 | 38 | 1.0 | 2.0 | 0.00 | 0.00 | 0.00 | 89 | 1017.2 |
| 20260508133518 | 60 | 36 | 0.0 | 2.0 | 0.00 | 0.00 | 0.00 | 89 | 1017.3 |
| 20260508133040 | 60 | 34 | 0.0 | 2.0 | 0.00 | 0.00 | 0.00 | 89 | 1017.2 |
| 20260508132614 | 60 | 36 | 0.0 | 2.0 | 0.00 | 0.00 | 0.00 | 89 | 1017.2 |
| 20260508132532 | 60 | 36 | 0.0 | 2.0 | 0.00 | 0.00 | 0.00 | 89 | 1017.2 |
| 20260508132047 | 60 | 34 | 1.0 | 2.0 | 0.00 | 0.00 | 0.00 | 89 | 1017.2 |
| 20260508131527 | 60 | 36 | 0.0 | 3.0 | 0.00 | 0.00 | 0.00 | 89 | 1017.1 |
| 20260508131022 | 60 | 35 | 1.0 | 3.0 | 0.00 | 0.00 | 0.00 | 89 | 1017.1 |
| 20260508130537 | 59 | 34 | 1.0 | 2.0 | 0.00 | 0.00 | 0.00 | 89 | 1017.0 |
| 20260508130100 | 60 | 34 | 0.0 | 2.0 | 0.00 | 0.00 | 0.00 | 89 | 1017.0 |
| 20260508130018 | 60 | 34 | 0.0 | 2.0 | 0.00 | 0.00 | 0.00 | 89 | 1017.0 |
| 20260508125613 | 59 | 35 | 0.0 | 2.0 | 0.00 | 0.00 | 0.00 | 90 | 1017.0 |
| 20260508125046 | 60 | 36 | 0.0 | 2.0 | 0.00 | 0.00 | 0.00 | 90 | 1017.0 |
| 20260508124548 | 59 | 35 | 0.0 | 2.0 | 0.00 | 0.00 | 0.00 | 90 | 1017.0 |
| 20260508124022 | 59 | 37 | 0.0 | 2.0 | 0.00 | 0.00 | 0.00 | 90 | 1017.0 |
| 20260508123557 | 59 | 38 | 0.0 | 5.0 | 0.00 | 0.00 | 0.00 | 90 | 1016.9 |
| 20260508123016 | 59 | 38 | 3.0 | 5.0 | 0.00 | 0.00 | 0.00 | 90 | 1017.0 |
| 20260508122532 | 59 | 36 | 2.0 | 5.0 | 0.00 | 0.00 | 0.00 | 90 | 1016.9 |
| 20260508122047 | 59 | 37 | 1.0 | 3.0 | 0.00 | 0.00 | 0.00 | 90 | 1017.0 |
| 20260508121528 | 59 | 35 | 1.0 | 4.0 | 0.00 | 0.00 | 0.00 | 90 | 1016.9 |
| 20260508121045 | 59 | 35 | 2.0 | 4.0 | 0.00 | 0.00 | 0.00 | 90 | 1016.9 |
| 20260508120540 | 59 | 34 | 2.0 | 4.0 | 0.00 | 0.00 | 0.00 | 90 | 1016.9 |
| 20260508120104 | 59 | 37 | 2.0 | 4.0 | 0.00 | 0.00 | 0.00 | 90 | 1016.9 |
| 20260508115540 | 59 | 34 | 2.0 | 4.0 | 0.00 | 0.00 | 0.00 | 90 | 1016.9 |
| 20260508115037 | 59 | 38 | 1.0 | 3.0 | 0.00 | 0.00 | 0.00 | 90 | 1016.9 |
| 20260508114519 | 59 | 36 | 1.0 | 3.0 | 0.00 | 0.00 | 0.00 | 90 | 1016.9 |
| 20260508114055 | 59 | 38 | 1.0 | 3.0 | 0.00 | 0.00 | 0.00 | 91 | 1016.8 |
| 20260508113549 | 59 | 36 | 1.0 | 4.0 | 0.00 | 0.00 | 0.00 | 90 | 1016.8 |
| 20260508113029 | 59 | 35 | 2.0 | 4.0 | 0.00 | 0.00 | 0.00 | 90 | 1016.9 |
| 20260508112524 | 59 | 36 | 1.0 | 3.0 | 0.00 | 0.00 | 0.00 | 90 | 1017.0 |
| 20260508112020 | 59 | 36 | 0.0 | 3.0 | 0.00 | 0.00 | 0.00 | 90 | 1016.9 |
| 20260508111524 | 59 | 37 | 1.0 | 3.0 | 0.00 | 0.00 | 0.00 | 90 | 1017.0 |
| 20260508111059 | 59 | 36 | 2.0 | 4.0 | 0.00 | 0.00 | 0.00 | 90 | 1016.9 |
| 20260508111017 | 59 | 36 | 2.0 | 4.0 | 0.00 | 0.00 | 0.00 | 90 | 1016.9 |
| 20260508110553 | 59 | 36 | 1.0 | 4.0 | 0.00 | 0.00 | 0.00 | 90 | 1016.8 |
| 20260508110036 | 59 | 37 | 1.0 | 4.0 | 0.00 | 0.00 | 0.00 | 90 | 1016.8 |
| 20260508105550 | 59 | 36 | 2.0 | 4.0 | 0.00 | 0.00 | 0.00 | 90 | 1016.8 |
| 20260508105025 | 59 | 34 | 1.0 | 4.0 | 0.00 | 0.00 | 0.00 | 90 | 1016.8 |
| 20260508104547 | 59 | 36 | 1.0 | 4.0 | 0.00 | 0.00 | 0.00 | 90 | 1016.8 |
| 20260508104043 | 59 | 35 | 1.0 | 4.0 | 0.00 | 0.00 | 0.00 | 90 | 1016.8 |
| 20260508103539 | 59 | 36 | 1.0 | 2.0 | 0.00 | 0.00 | 0.00 | 90 | 1016.8 |
| 20260508103043 | 60 | 36 | 1.0 | 2.0 | 0.00 | 0.00 | 0.00 | 90 | 1016.9 |
| 20260508102518 | 59 | 35 | 1.0 | 2.0 | 0.00 | 0.00 | 0.00 | 90 | 1016.9 |
| 20260508102113 | 59 | 36 | 0.0 | 2.0 | 0.00 | 0.00 | 0.00 | 89 | 1016.9 |
| 20260508101553 | 60 | 35 | 1.0 | 3.0 | 0.00 | 0.00 | 0.00 | 89 | 1016.9 |
| 20260508101107 | 60 | 36 | 1.0 | 3.0 | 0.00 | 0.00 | 0.00 | 89 | 1016.9 |
| 20260508101024 | 60 | 36 | 1.0 | 3.0 | 0.00 | 0.00 | 0.00 | 89 | 1016.9 |
| 20260508100519 | 60 | 37 | 1.0 | 3.0 | 0.00 | 0.00 | 0.00 | 89 | 1016.9 |
| 20260508100043 | 60 | 35 | 1.0 | 3.0 | 0.00 | 0.00 | 0.00 | 89 | 1016.9 |
| 20260508095540 | 60 | 37 | 1.0 | 3.0 | 0.00 | 0.00 | 0.00 | 89 | 1017.0 |
| 20260508095015 | 60 | 34 | 2.0 | 3.0 | 0.00 | 0.00 | 0.00 | 89 | 1016.9 |
| 20260508094601 | 60 | 38 | 2.0 | 3.0 | 0.00 | 0.00 | 0.00 | 89 | 1016.9 |
| 20260508094036 | 60 | 35 | 2.0 | 3.0 | 0.00 | 0.00 | 0.00 | 89 | 1016.9 |
| 20260508093531 | 60 | 35 | 2.0 | 3.0 | 0.00 | 0.00 | 0.00 | 89 | 1016.9 |
| 20260508093031 | 60 | 36 | 2.0 | 3.0 | 0.00 | 0.00 | 0.00 | 89 | 1017.0 |
| 20260508092530 | 60 | 35 | 2.0 | 4.0 | 0.00 | 0.00 | 0.00 | 89 | 1017.0 |
| 20260508092026 | 60 | 37 | 1.0 | 4.0 | 0.00 | 0.00 | 0.00 | 89 | 1017.0 |
| 20260508091607 | 60 | 36 | 0.0 | 2.0 | 0.00 | 0.00 | 0.00 | 90 | 1017.0 |
| 20260508091100 | 60 | 35 | 1.0 | 3.0 | 0.00 | 0.00 | 0.00 | 89 | 1017.0 |
| 20260508090613 | 60 | 36 | 2.0 | 3.0 | 0.00 | 0.00 | 0.00 | 89 | 1017.0 |
| 20260508090033 | 60 | 37 | 2.0 | 4.0 | 0.00 | 0.00 | 0.00 | 89 | 1017.0 |
| 20260508085529 | 60 | 36 | 3.0 | 5.0 | 0.00 | 0.00 | 0.00 | 89 | 1017.1 |
| 20260508085104 | 60 | 34 | 3.0 | 5.0 | 0.00 | 0.00 | 0.00 | 89 | 1017.1 |
| 20260508084607 | 60 | 32 | 2.0 | 4.0 | 0.00 | 0.00 | 0.00 | 89 | 1017.1 |
| 20260508084042 | 60 | 36 | 2.0 | 4.0 | 0.00 | 0.00 | 0.00 | 89 | 1017.2 |
| 20260508083538 | 60 | 38 | 2.0 | 4.0 | 0.00 | 0.00 | 0.00 | 89 | 1017.3 |
| 20260508083103 | 60 | 37 | 2.0 | 3.0 | 0.00 | 0.00 | 0.00 | 89 | 1017.3 |
| 20260508083020 | 60 | 37 | 2.0 | 3.0 | 0.00 | 0.00 | 0.00 | 89 | 1017.3 |
| 20260508082517 | 60 | 36 | 1.0 | 3.0 | 0.00 | 0.00 | 0.00 | 89 | 1017.3 |
| 20260508082112 | 60 | 36 | 1.0 | 3.0 | 0.00 | 0.00 | 0.00 | 89 | 1017.3 |
| 20260508081532 | 60 | 34 | 1.0 | 2.0 | 0.00 | 0.00 | 0.00 | 88 | 1017.4 |
| 20260508081107 | 60 | 34 | 1.0 | 4.0 | 0.00 | 0.00 | 0.00 | 88 | 1017.5 |
| 20260508080600 | 60 | 36 | 1.0 | 4.0 | 0.00 | 0.00 | 0.00 | 88 | 1017.6 |
| 20260508080518 | 60 | 36 | 1.0 | 4.0 | 0.00 | 0.00 | 0.00 | 88 | 1017.6 |
| 20260508080021 | 60 | 36 | 1.0 | 3.0 | 0.00 | 0.00 | 0.00 | 88 | 1017.5 |
| 20260508075517 | 60 | 34 | 2.0 | 4.0 | 0.00 | 0.00 | 0.00 | 88 | 1017.6 |
| 20260508075054 | 60 | 36 | 1.0 | 3.0 | 0.00 | 0.00 | 0.00 | 88 | 1017.5 |
| 20260508074535 | 60 | 37 | 1.0 | 2.0 | 0.00 | 0.00 | 0.00 | 88 | 1017.5 |
| 20260508074030 | 60 | 34 | 1.0 | 2.0 | 0.00 | 0.00 | 0.00 | 88 | 1017.6 |
| 20260508073548 | 60 | 37 | 1.0 | 2.0 | 0.00 | 0.00 | 0.00 | 88 | 1017.6 |
| 20260508073050 | 60 | 36 | 1.0 | 3.0 | 0.00 | 0.00 | 0.00 | 88 | 1017.7 |
| 20260508072524 | 60 | 34 | 1.0 | 4.0 | 0.00 | 0.00 | 0.00 | 88 | 1017.7 |
| 20260508072059 | 60 | 36 | 3.0 | 7.0 | 0.00 | 0.00 | 0.00 | 87 | 1017.6 |
| 20260508072017 | 60 | 36 | 3.0 | 7.0 | 0.00 | 0.00 | 0.00 | 87 | 1017.6 |
| 20260508071519 | 60 | 36 | 3.0 | 6.0 | 0.00 | 0.00 | 0.00 | 87 | 1017.7 |
| 20260508071015 | 61 | 34 | 2.0 | 6.0 | 0.00 | 0.00 | 0.00 | 87 | 1017.7 |
| 20260508070535 | 61 | 34 | 2.0 | 5.0 | 0.00 | 0.00 | 0.00 | 87 | 1017.7 |
| 20260508070035 | 61 | 36 | 1.0 | 5.0 | 0.00 | 0.00 | 0.00 | 87 | 1017.7 |
| 20260508065528 | 61 | 38 | 0.0 | 2.0 | 0.00 | 0.00 | 0.00 | 87 | 1017.7 |
| 20260508065028 | 61 | 38 | 1.0 | 4.0 | 0.00 | 0.00 | 0.00 | 87 | 1017.7 |
| 20260508064529 | 60 | 34 | 2.0 | 4.0 | 0.00 | 0.00 | 0.00 | 87 | 1017.8 |
| 20260508064046 | 60 | 36 | 2.0 | 4.0 | 0.00 | 0.00 | 0.00 | 87 | 1017.8 |
| 20260508063521 | 60 | 32 | 1.0 | 3.0 | 0.00 | 0.00 | 0.00 | 87 | 1017.8 |
| 20260508063115 | 60 | 38 | 1.0 | 4.0 | 0.00 | 0.00 | 0.00 | 87 | 1017.9 |
| 20260508063033 | 60 | 38 | 1.0 | 4.0 | 0.00 | 0.00 | 0.00 | 87 | 1017.9 |
| 20260508062549 | 60 | 36 | 3.0 | 5.0 | 0.00 | 0.00 | 0.00 | 87 | 1017.9 |
| 20260508062023 | 60 | 37 | 3.0 | 5.0 | 0.00 | 0.00 | 0.00 | 87 | 1017.8 |
| 20260508061545 | 60 | 35 | 2.0 | 5.0 | 0.00 | 0.00 | 0.00 | 87 | 1017.8 |
| 20260508061059 | 60 | 36 | 2.0 | 5.0 | 0.00 | 0.00 | 0.00 | 88 | 1017.9 |
| 20260508060554 | 60 | 36 | 2.0 | 4.0 | 0.00 | 0.00 | 0.00 | 88 | 1017.9 |
| 20260508060058 | 60 | 34 | 2.0 | 4.0 | 0.00 | 0.00 | 0.00 | 88 | 1017.8 |
| 20260508055530 | 60 | 36 | 2.0 | 4.0 | 0.00 | 0.00 | 0.00 | 88 | 1017.8 |
| 20260508055101 | 60 | 36 | 2.0 | 3.0 | 0.00 | 0.00 | 0.00 | 88 | 1017.9 |
| 20260508054604 | 60 | 35 | 1.0 | 2.0 | 0.00 | 0.00 | 0.00 | 88 | 1017.7 |
| 20260508054521 | 60 | 35 | 1.0 | 2.0 | 0.00 | 0.00 | 0.00 | 88 | 1017.7 |
| 20260508054057 | 60 | 36 | 1.0 | 2.0 | 0.00 | 0.00 | 0.00 | 88 | 1017.8 |
| 20260508054014 | 60 | 36 | 1.0 | 2.0 | 0.00 | 0.00 | 0.00 | 88 | 1017.8 |
| 20260508053549 | 60 | 35 | 1.0 | 3.0 | 0.00 | 0.00 | 0.00 | 88 | 1017.8 |
| 20260508053052 | 60 | 34 | 2.0 | 3.0 | 0.00 | 0.00 | 0.00 | 88 | 1017.9 |
| 20260508052548 | 60 | 36 | 1.0 | 6.0 | 0.00 | 0.00 | 0.00 | 88 | 1017.9 |
| 20260508052022 | 60 | 35 | 4.0 | 6.0 | 0.00 | 0.00 | 0.00 | 87 | 1017.8 |
| 20260508051606 | 60 | 36 | 2.0 | 4.0 | 0.00 | 0.00 | 0.00 | 87 | 1017.8 |
| 20260508051040 | 60 | 38 | 3.0 | 5.0 | 0.00 | 0.00 | 0.00 | 88 | 1017.9 |
| 20260508050535 | 60 | 38 | 2.0 | 5.0 | 0.00 | 0.00 | 0.00 | 88 | 1017.9 |
| 20260508050100 | 60 | 36 | 1.0 | 5.0 | 0.00 | 0.00 | 0.00 | 88 | 1017.9 |
| 20260508050017 | 60 | 36 | 1.0 | 5.0 | 0.00 | 0.00 | 0.00 | 88 | 1017.9 |
| 20260508045613 | 60 | 32 | 2.0 | 6.0 | 0.00 | 0.00 | 0.00 | 87 | 1017.8 |
| 20260508045045 | 60 | 34 | 3.0 | 6.0 | 0.00 | 0.00 | 0.00 | 87 | 1017.8 |
| 20260508044609 | 60 | 35 | 1.0 | 5.0 | 0.00 | 0.00 | 0.00 | 87 | 1017.8 |
| 20260508044526 | 60 | 35 | 1.0 | 5.0 | 0.00 | 0.00 | 0.00 | 87 | 1017.8 |
| 20260508044042 | 61 | 38 | 1.0 | 5.0 | 0.00 | 0.00 | 0.00 | 87 | 1017.7 |
| 20260508043536 | 61 | 36 | 2.0 | 5.0 | 0.00 | 0.00 | 0.00 | 87 | 1017.6 |
| 20260508043037 | 61 | 35 | 1.0 | 3.0 | 0.00 | 0.00 | 0.00 | 87 | 1017.5 |
| 20260508042551 | 60 | 38 | 0.0 | 5.0 | 0.00 | 0.00 | 0.00 | 88 | 1017.5 |
| 20260508042025 | 60 | 38 | 3.0 | 5.0 | 0.00 | 0.00 | 0.00 | 87 | 1017.4 |
| 20260508041547 | 60 | 38 | 3.0 | 6.0 | 0.00 | 0.00 | 0.00 | 87 | 1017.4 |
| 20260508041041 | 60 | 35 | 4.0 | 6.0 | 0.00 | 0.00 | 0.00 | 87 | 1017.3 |
| 20260508040515 | 60 | 35 | 4.0 | 6.0 | 0.00 | 0.00 | 0.00 | 86 | 1017.3 |
| 20260508040018 | 60 | 35 | 4.0 | 8.0 | 0.00 | 0.00 | 0.00 | 87 | 1017.2 |
| 20260508035613 | 60 | 38 | 4.0 | 7.0 | 0.00 | 0.00 | 0.00 | 87 | 1017.1 |
| 20260508035025 | 60 | 36 | 4.0 | 6.0 | 0.00 | 0.00 | 0.00 | 86 | 1017.1 |
| 20260508034548 | 60 | 34 | 2.0 | 5.0 | 0.00 | 0.00 | 0.00 | 86 | 1016.9 |
| 20260508034041 | 60 | 35 | 3.0 | 7.0 | 0.00 | 0.00 | 0.00 | 86 | 1016.8 |
| 20260508033535 | 60 | 36 | 4.0 | 6.0 | 0.00 | 0.00 | 0.00 | 86 | 1016.7 |
| 20260508033034 | 60 | 34 | 4.0 | 7.0 | 0.00 | 0.00 | 0.00 | 86 | 1016.7 |
| 20260508032604 | 60 | 38 | 3.0 | 7.0 | 0.00 | 0.00 | 0.00 | 85 | 1016.6 |
| 20260508032037 | 60 | 35 | 4.0 | 7.0 | 0.00 | 0.00 | 0.00 | 85 | 1016.6 |
| 20260508031611 | 61 | 38 | 4.0 | 8.0 | 0.00 | 0.00 | 0.00 | 84 | 1016.5 |
| 20260508031529 | 61 | 38 | 4.0 | 8.0 | 0.00 | 0.00 | 0.00 | 84 | 1016.5 |
| 20260508031045 | 61 | 36 | 4.0 | 7.0 | 0.00 | 0.00 | 0.00 | 84 | 1016.4 |
| 20260508030600 | 61 | 35 | 3.0 | 7.0 | 0.00 | 0.00 | 0.00 | 84 | 1016.4 |
| 20260508030103 | 61 | 36 | 4.0 | 7.0 | 0.00 | 0.00 | 0.00 | 83 | 1016.3 |
| 20260508030021 | 61 | 36 | 4.0 | 7.0 | 0.00 | 0.00 | 0.00 | 83 | 1016.3 |
| 20260508025537 | 62 | 38 | 3.0 | 5.0 | 0.00 | 0.00 | 0.00 | 83 | 1016.3 |
| 20260508025032 | 62 | 35 | 4.0 | 5.0 | 0.00 | 0.00 | 0.00 | 83 | 1016.2 |
| 20260508024535 | 62 | 36 | 4.0 | 6.0 | 0.00 | 0.00 | 0.00 | 82 | 1016.2 |
| 20260508024050 | 62 | 38 | 4.0 | 6.0 | 0.00 | 0.00 | 0.00 | 82 | 1016.2 |
| 20260508023605 | 62 | 34 | 4.0 | 9.0 | 0.00 | 0.00 | 0.00 | 82 | 1016.1 |
| 20260508023109 | 62 | 35 | 5.0 | 9.0 | 0.00 | 0.00 | 0.00 | 81 | 1016.1 |
| 20260508023026 | 62 | 35 | 5.0 | 9.0 | 0.00 | 0.00 | 0.00 | 81 | 1016.1 |
| 20260508022522 | 63 | 34 | 5.0 | 9.0 | 0.00 | 0.00 | 0.00 | 80 | 1016.0 |
| 20260508022037 | 63 | 35 | 5.0 | 9.0 | 0.00 | 0.00 | 0.00 | 78 | 1016.0 |
| 20260508021601 | 64 | 37 | 4.0 | 9.0 | 0.00 | 0.00 | 0.00 | 78 | 1015.9 |
| 20260508021518 | 64 | 37 | 4.0 | 9.0 | 0.00 | 0.00 | 0.00 | 78 | 1015.9 |
| 20260508021054 | 64 | 36 | 4.0 | 7.0 | 0.00 | 0.00 | 0.00 | 78 | 1015.9 |
| 20260508020529 | 64 | 34 | 4.0 | 9.0 | 0.00 | 0.00 | 0.00 | 77 | 1015.8 |
| 20260508020030 | 65 | 34 | 6.0 | 9.0 | 0.00 | 0.00 | 0.00 | 76 | 1015.9 |
| 20260508015526 | 65 | 35 | 3.0 | 8.0 | 0.00 | 0.00 | 0.00 | 77 | 1015.9 |
| 20260508015101 | 65 | 36 | 3.0 | 8.0 | 0.00 | 0.00 | 0.00 | 77 | 1015.8 |
| 20260508014524 | 65 | 34 | 4.0 | 9.0 | 0.00 | 0.00 | 0.00 | 76 | 1015.8 |
| 20260508014019 | 65 | 35 | 3.0 | 9.0 | 0.00 | 0.00 | 0.00 | 76 | 1015.7 |
| 20260508013515 | 66 | 38 | 4.0 | 9.0 | 0.00 | 0.00 | 0.00 | 73 | 1015.7 |
| 20260508013059 | 66 | 35 | 4.0 | 8.0 | 0.00 | 0.00 | 0.00 | 74 | 1015.7 |
| 20260508013017 | 66 | 35 | 4.0 | 8.0 | 0.00 | 0.00 | 0.00 | 74 | 1015.7 |
| 20260508012532 | 67 | 36 | 5.0 | 10.0 | 0.00 | 0.00 | 0.00 | 74 | 1015.8 |
| 20260508012047 | 66 | 37 | 4.0 | 10.0 | 0.00 | 0.00 | 0.00 | 75 | 1015.8 |
| 20260508011548 | 65 | 35 | 5.0 | 9.0 | 0.00 | 0.00 | 0.00 | 75 | 1015.8 |
| 20260508011022 | 65 | 38 | 4.0 | 8.0 | 0.00 | 0.00 | 0.00 | 74 | 1015.7 |
| 20260508010558 | 66 | 35 | 4.0 | 9.0 | 0.00 | 0.00 | 0.00 | 72 | 1015.8 |
| 20260508010516 | 66 | 35 | 4.0 | 9.0 | 0.00 | 0.00 | 0.00 | 72 | 1015.8 |
| 20260508005523 | 66 | 35 | 4.0 | 8.0 | 0.00 | 0.00 | 0.00 | 75 | 1015.8 |
| 20260508005041 | 67 | 35 | 4.0 | 9.0 | 0.00 | 0.00 | 0.00 | 74 | 1015.7 |
| 20260508004543 | 67 | 35 | 4.0 | 10.0 | 0.00 | 0.00 | 0.00 | 74 | 1015.7 |
| 20260508004017 | 66 | 34 | 4.0 | 10.0 | 0.00 | 0.00 | 0.00 | 75 | 1015.7 |
| 20260508003532 | 66 | 35 | 6.0 | 9.0 | 0.00 | 0.00 | 0.00 | 74 | 1015.8 |
| 20260508003014 | 66 | 35 | 5.0 | 9.0 | 0.00 | 0.00 | 0.00 | 74 | 1015.8 |
| 20260508002610 | 66 | 36 | 5.0 | 10.0 | 0.00 | 0.00 | 0.00 | 74 | 1015.8 |
| 20260508002103 | 65 | 35 | 7.0 | 10.0 | 0.00 | 0.00 | 0.00 | 75 | 1015.7 |
| 20260508001615 | 66 | 37 | 7.0 | 12.0 | 0.00 | 0.00 | 0.00 | 73 | 1015.8 |
| 20260508001532 | 66 | 37 | 7.0 | 12.0 | 0.00 | 0.00 | 0.00 | 73 | 1015.8 |
| 20260508001108 | 66 | 35 | 6.0 | 12.0 | 0.00 | 0.00 | 0.00 | 74 | 1015.8 |
| 20260508000520 | 66 | 35 | 7.0 | 11.0 | 0.00 | 0.00 | 0.00 | 74 | 1015.9 |
| 20260508000023 | 66 | 34 | 5.0 | 12.0 | 0.00 | 0.00 | 0.00 | 75 | 1015.9 |
| 20260507235559 | 67 | 36 | 6.0 | 12.0 | 0.00 | 0.00 | 0.00 | 72 | 1015.8 |
| 20260507235516 | 67 | 36 | 6.0 | 12.0 | 0.00 | 0.00 | 0.00 | 72 | 1015.8 |
| 20260507235031 | 68 | 36 | 6.0 | 11.0 | 0.00 | 0.00 | 0.00 | 73 | 1015.9 |
| 20260507234557 | 67 | 35 | 7.0 | 11.0 | 0.00 | 0.00 | 0.00 | 73 | 1015.9 |
| 20260507234514 | 67 | 35 | 7.0 | 11.0 | 0.00 | 0.00 | 0.00 | 73 | 1015.9 |
| 20260507234029 | 66 | 34 | 7.0 | 11.0 | 0.00 | 0.00 | 0.00 | 74 | 1015.9 |
| 20260507233604 | 67 | 35 | 7.0 | 10.0 | 0.00 | 0.00 | 0.00 | 71 | 1015.9 |
| 20260507233522 | 67 | 35 | 7.0 | 10.0 | 0.00 | 0.00 | 0.00 | 71 | 1015.9 |
| 20260507233107 | 67 | 35 | 4.0 | 11.0 | 0.00 | 0.00 | 0.00 | 72 | 1015.8 |
| 20260507233024 | 67 | 35 | 4.0 | 11.0 | 0.00 | 0.00 | 0.00 | 72 | 1015.8 |
| 20260507232519 | 67 | 35 | 7.0 | 12.0 | 0.00 | 0.00 | 0.00 | 71 | 1015.8 |
| 20260507232035 | 67 | 35 | 8.0 | 12.0 | 0.00 | 0.00 | 0.00 | 72 | 1015.8 |
| 20260507231559 | 67 | 36 | 4.0 | 11.0 | 0.00 | 0.00 | 0.00 | 71 | 1015.7 |
| 20260507231516 | 67 | 36 | 4.0 | 11.0 | 0.00 | 0.00 | 0.00 | 71 | 1015.7 |
| 20260507231051 | 69 | 38 | 5.0 | 11.0 | 0.00 | 0.00 | 0.00 | 72 | 1015.7 |
| 20260507230526 | 67 | 34 | 7.0 | 11.0 | 0.00 | 0.00 | 0.00 | 71 | 1015.7 |
| 20260507230027 | 67 | 35 | 7.0 | 13.0 | 0.00 | 0.00 | 0.00 | 72 | 1015.7 |
| 20260507225602 | 68 | 34 | 6.0 | 13.0 | 0.00 | 0.00 | 0.00 | 71 | 1015.7 |
| 20260507225520 | 68 | 34 | 6.0 | 13.0 | 0.00 | 0.00 | 0.00 | 71 | 1015.7 |
| 20260507225036 | 68 | 35 | 5.0 | 11.0 | 0.00 | 0.00 | 0.00 | 72 | 1015.8 |
| 20260507224519 | 67 | 38 | 8.0 | 12.0 | 0.00 | 0.00 | 0.00 | 73 | 1016.0 |
| 20260507224035 | 67 | 36 | 9.0 | 15.0 | 0.00 | 0.00 | 0.00 | 73 | 1016.0 |
| 20260507223529 | 66 | 35 | 10.0 | 15.0 | 0.00 | 0.00 | 0.00 | 74 | 1015.9 |
| 20260507223031 | 67 | 35 | 10.0 | 12.0 | 0.00 | 0.00 | 0.00 | 71 | 1016.0 |
| 20260507222546 | 69 | 38 | 7.0 | 15.0 | 0.00 | 0.00 | 0.00 | 70 | 1016.0 |
| 20260507222100 | 68 | 36 | 9.0 | 15.0 | 0.00 | 0.00 | 0.00 | 71 | 1016.0 |
| 20260507221613 | 68 | 34 | 10.0 | 15.0 | 0.00 | 0.00 | 0.00 | 70 | 1016.1 |
| 20260507221530 | 68 | 34 | 10.0 | 15.0 | 0.00 | 0.00 | 0.00 | 70 | 1016.1 |
| 20260507221025 | 68 | 34 | 7.0 | 13.0 | 0.00 | 0.00 | 0.00 | 71 | 1016.0 |
| 20260507220601 | 67 | 35 | 9.0 | 13.0 | 0.00 | 0.00 | 0.00 | 72 | 1016.2 |
| 20260507220040 | 67 | 35 | 9.0 | 13.0 | 0.00 | 0.00 | 0.00 | 72 | 1016.2 |
| 20260507215533 | 67 | 38 | 8.0 | 14.0 | 0.00 | 0.00 | 0.00 | 71 | 1016.2 |
| 20260507215027 | 68 | 34 | 10.0 | 14.0 | 0.00 | 0.00 | 0.00 | 70 | 1016.3 |
| 20260507214548 | 69 | 35 | 8.0 | 14.0 | 0.00 | 0.00 | 0.00 | 69 | 1016.2 |
| 20260507214022 | 68 | 35 | 10.0 | 14.0 | 0.00 | 0.00 | 0.00 | 70 | 1016.3 |
| 20260507213558 | 69 | 35 | 7.0 | 13.0 | 0.00 | 0.00 | 0.00 | 69 | 1016.4 |
| 20260507213059 | 68 | 36 | 9.0 | 15.0 | 0.00 | 0.00 | 0.00 | 71 | 1016.4 |
| 20260507213016 | 68 | 36 | 9.0 | 15.0 | 0.00 | 0.00 | 0.00 | 71 | 1016.4 |
| 20260507212552 | 68 | 35 | 9.0 | 15.0 | 0.00 | 0.00 | 0.00 | 70 | 1016.4 |
| 20260507212027 | 68 | 34 | 9.0 | 13.0 | 0.00 | 0.00 | 0.00 | 70 | 1016.5 |
| 20260507211548 | 67 | 36 | 8.0 | 13.0 | 0.00 | 0.00 | 0.00 | 72 | 1016.5 |
| 20260507211027 | 69 | 34 | 10.0 | 16.0 | 0.00 | 0.00 | 0.00 | 70 | 1016.5 |
| 20260507210558 | 68 | 35 | 9.0 | 16.0 | 0.00 | 0.00 | 0.00 | 69 | 1016.5 |
| 20260507210038 | 69 | 34 | 7.0 | 15.0 | 0.00 | 0.00 | 0.00 | 69 | 1016.5 |
| 20260507205517 | 68 | 35 | 11.0 | 15.0 | 0.00 | 0.00 | 0.00 | 70 | 1016.7 |
| 20260507205013 | 69 | 36 | 7.0 | 15.0 | 0.00 | 0.00 | 0.00 | 69 | 1016.7 |
| 20260507204555 | 68 | 37 | 10.0 | 15.0 | 0.00 | 0.00 | 0.00 | 70 | 1016.7 |
| 20260507204513 | 68 | 37 | 10.0 | 15.0 | 0.00 | 0.00 | 0.00 | 70 | 1016.7 |
| 20260507204029 | 69 | 36 | 9.0 | 14.0 | 0.00 | 0.00 | 0.00 | 68 | 1016.6 |
| 20260507203545 | 69 | 35 | 8.0 | 14.0 | 0.00 | 0.00 | 0.00 | 69 | 1016.6 |
| 20260507203104 | 69 | 34 | 9.0 | 15.0 | 0.00 | 0.00 | 0.00 | 69 | 1016.7 |
| 20260507202521 | 69 | 35 | 11.0 | 15.0 | 0.00 | 0.00 | 0.00 | 69 | 1016.7 |
| 20260507202112 | 69 | 35 | 9.0 | 16.0 | 0.00 | 0.00 | 0.00 | 68 | 1016.7 |
| 20260507202030 | 69 | 35 | 9.0 | 16.0 | 0.00 | 0.00 | 0.00 | 68 | 1016.7 |
| 20260507201515 | 70 | 35 | 10.0 | 16.0 | 0.00 | 0.00 | 0.00 | 68 | 1016.7 |
| 20260507201046 | 70 | 35 | 8.0 | 12.0 | 0.00 | 0.00 | 0.00 | 67 | 1016.7 |
| 20260507200600 | 71 | 35 | 6.0 | 12.0 | 0.00 | 0.00 | 0.00 | 67 | 1016.7 |
| 20260507200518 | 71 | 35 | 6.0 | 12.0 | 0.00 | 0.00 | 0.00 | 67 | 1016.7 |
| 20260507195517 | 70 | 35 | 5.0 | 12.0 | 0.00 | 0.00 | 0.00 | 68 | 1016.7 |
| 20260507195112 | 69 | 36 | 8.0 | 12.0 | 0.00 | 0.00 | 0.00 | 69 | 1016.8 |
| 20260507195029 | 69 | 36 | 8.0 | 12.0 | 0.00 | 0.00 | 0.00 | 69 | 1016.8 |
| 20260507194552 | 69 | 34 | 7.0 | 12.0 | 0.00 | 0.00 | 0.00 | 68 | 1016.7 |
| 20260507194107 | 69 | 35 | 7.0 | 13.0 | 0.00 | 0.00 | 0.00 | 67 | 1016.8 |
| 20260507193542 | 71 | 34 | 7.0 | 13.0 | 0.00 | 0.00 | 0.00 | 66 | 1016.8 |
| 20260507193106 | 69 | 36 | 5.0 | 13.0 | 0.00 | 0.00 | 0.00 | 70 | 1016.8 |
| 20260507193023 | 69 | 36 | 5.0 | 13.0 | 0.00 | 0.00 | 0.00 | 70 | 1016.8 |
| 20260507192518 | 68 | 36 | 7.0 | 12.0 | 0.00 | 0.00 | 0.00 | 69 | 1016.9 |
| 20260507192013 | 69 | 35 | 6.0 | 12.0 | 0.00 | 0.00 | 0.00 | 69 | 1017.0 |
| 20260507191559 | 69 | 36 | 7.0 | 12.0 | 0.00 | 0.00 | 0.00 | 69 | 1017.0 |
| 20260507191516 | 69 | 36 | 7.0 | 12.0 | 0.00 | 0.00 | 0.00 | 69 | 1017.0 |
| 20260507191051 | 69 | 35 | 8.0 | 14.0 | 0.00 | 0.00 | 0.00 | 68 | 1017.1 |
| 20260507190526 | 69 | 35 | 8.0 | 14.0 | 0.00 | 0.00 | 0.00 | 68 | 1017.1 |
| 20260507190026 | 69 | 35 | 7.0 | 14.0 | 0.00 | 0.00 | 0.00 | 68 | 1017.2 |
| 20260507185601 | 69 | 34 | 6.0 | 14.0 | 0.00 | 0.00 | 0.00 | 68 | 1017.2 |
| 20260507185015 | 69 | 36 | 8.0 | 14.0 | 0.00 | 0.00 | 0.00 | 68 | 1017.1 |
| 20260507184518 | 70 | 35 | 5.0 | 11.0 | 0.00 | 0.00 | 0.00 | 67 | 1017.2 |
| 20260507184113 | 69 | 34 | 7.0 | 11.0 | 0.00 | 0.00 | 0.00 | 67 | 1017.2 |
| 20260507183606 | 69 | 34 | 7.0 | 10.0 | 0.00 | 0.00 | 0.00 | 67 | 1017.2 |
| 20260507183524 | 69 | 34 | 7.0 | 10.0 | 0.00 | 0.00 | 0.00 | 67 | 1017.2 |
| 20260507183024 | 70 | 32 | 5.0 | 9.0 | 0.00 | 0.00 | 0.00 | 67 | 1017.3 |
| 20260507182559 | 70 | 32 | 4.0 | 9.0 | 0.00 | 0.00 | 0.00 | 68 | 1017.3 |
| 20260507182517 | 70 | 32 | 4.0 | 9.0 | 0.00 | 0.00 | 0.00 | 68 | 1017.3 |
| 20260507182034 | 69 | 35 | 7.0 | 9.0 | 0.00 | 0.00 | 0.00 | 68 | 1017.3 |
| 20260507181537 | 69 | 34 | 6.0 | 10.0 | 0.00 | 0.00 | 0.00 | 67 | 1017.3 |
| 20260507181012 | 69 | 35 | 4.0 | 6.0 | 0.00 | 0.00 | 0.00 | 66 | 1017.3 |
| 20260507180529 | 69 | 34 | 4.0 | 8.0 | 0.00 | 0.00 | 0.00 | 68 | 1017.4 |
| 20260507180031 | 69 | 34 | 3.0 | 8.0 | 0.00 | 0.00 | 0.00 | 69 | 1017.5 |